Hourly Data Report for October 30, 2016

All times are specified in Local Standard Time (LST). Add 1 hour to adjust for Daylight Saving Time where and when it is observed.

WINNIPEG A CS
MANITOBA

49°55'00.000" N
97°14'58.000" W
238.70 m
502S001
71849
XWG

Download Data

Hourly Data (October 2016)
Hourly Data Report for October 30, 2016
Temp Definition
°C
Dew Point Temp Definition
°C
Rel Hum Definition
%
Wind Dir Definition
10's deg

Wind Spd Definition
km/h
Visibility Definition
km
Stn Press Definition
kPa
Hmdx Definition


Wind Chill Definition


Weather Definition


TIME
00:00 -1.2 -1.4 99 21 7   99.38   -4 LegendNANA
01:00 -0.1 -0.4 98 21 11   99.36   -4 LegendNANA
02:00 -0.8 -1.2 97 23 9   99.38   -4 LegendNANA
03:00 -1.1 -1.6 96 20 5   99.37   -3 LegendNANA
04:00 0.7 0.0 95 21 7   99.37     LegendNANA
05:00 1.6 0.7 94 22 11   99.33     LegendNANA
06:00 1.7 0.8 93 21 11   99.32     LegendNANA
07:00 1.8 0.9 94 22 11   99.31     LegendNANA
08:00 2.8 1.6 92 20 11   99.29     LegendNANA
09:00 2.8 1.8 93 20 14   99.32     LegendNANA
10:00 3.8 2.4 91 19 12   99.27     LegendNANA
11:00 5.4 2.6 82 18 13   99.21     LegendNANA
12:00 7.7 2.8 71 18 22   99.14     LegendNANA
13:00 8.0 2.9 70 19 29   99.07     LegendNANA
14:00 7.5 3.2 74 19 25   99.00     LegendNANA
15:00 7.8 3.1 72 17 28   98.87     LegendNANA
16:00 7.1 2.8 74 17 26   98.77     LegendNANA
17:00 6.6 2.9 77 17 28   98.68     LegendNANA
18:00 6.2 2.6 78 18 30   98.64     LegendNANA
19:00 5.4 2.3 80 17 30   98.62     LegendNANA
20:00 5.0 2.0 81 17 26   98.54     LegendNANA
21:00 4.7 2.1 84 17 30   98.40     LegendNANA
22:00 4.1 2.0 86 18 33   98.27     LegendNANA
23:00 4.2 2.5 88 18 33   98.21     LegendNANA

Notes on Data Quality.

Legend

  • E = Estimated
  • M = Missing
  • NA = Not Available
  • ‡ = Partner data that is not subject to review by the National Climate Archives
Date modified: